Location: Newark
(41.1200°N, 81.9000°W)
Time: 17:25:09
(UTC+00:00)

Hubble Space Telescope - Visible Passes

Search period start: 18 August 2019 00:00
Search period end: 28 August 2019 00:00
Orbit: 536 x 540 km, 28.5° (Epoch: 17 August)

Date Brightness Start Highest point End Pass type
(mag) Time Alt. Az. Time Alt. Az. Time Alt. Az.
18 Aug 2.8 01:23:46 10° SSW 01:25:56 14° S 01:27:31 12° SSE visible
19 Aug 2.9 01:13:10 10° SW 01:15:15 14° S 01:17:20 10° SSE visible
20 Aug 3.0 01:02:39 10° SW 01:04:35 13° S 01:06:30 10° SSE visible
21 Aug 3.1 00:52:16 10° SSW 00:53:54 12° S 00:55:33 10° SSE visible
